Starlink 4102

operational
NORAD ID: 53143 Int'l Des: 2022-083 Owner: SPXS Country: US Constellation: starlink
LEOCIRCULAR

Über Starlink 4102

Beschreibung wird geladen...

Live-Position

3D-Globus wird geladen...

Nächste Überflüge

Höhenverlauf

Altitude vs Time

uPlot chart will show altitude changes over time

Zweizeiliger Elementsatz

1 53143U 22083M 25304.60589001 -.00000456 00000-0 -10587-4 0 9996
2 53143 53.2194 33.5964 0001546 102.0101 258.1065 15.08834862181735
Epoch: 31. Okt. 2025 • Age: 26 hours

Aktueller Status

Höhe 544.8 km
Geschwindigkeit 7.60 km/s
Subsatellitenpunkt 51.01°N, 145.75°W
Startdatum 17. Juli 2022
Alter 3.2 years
Typ internet

Technische Details

Klassifizierung Payload
Masse 297.00 kg
Trockenmasse 275.00 kg
Gesamtmasse 297.00 kg
Länge 0.20 m
Durchmesser 2.80 m
Spannweite 9.00 m
Form Box + pan
Hersteller SPXS
Bus-Typ Starlink
Phasenstatus In Orbit
Besitzer/Staat SPXS/US

Große Konstellationen

Loading constellations...